Regional Weather Roundup
Issued by NWS

Home | Current Version | Previous Version | Text Only | Print | Product List | Glossary On
Versions: 1 2 3 4 5 6 7 8 9 10 11 12 13 14 15 16 17 18 19 20 21 22 23 24 25 26 27 28 29 30 31 32 33 34 35 36 37 38 39 40 41 42 43 44 45 46 47 48 49 50
000
ASUS43 KMPX 212001
RWRMN
WEATHER ROUNDUP FOR MINNESOTA
NATIONAL WEATHER SERVICE TWIN CITIES/CHANHASSEN MN
200 PM CST TUE NOV 21 2017


NOTE: "FAIR" INDICATES FEW OR NO CLOUDS BELOW 12,000 FEET WITH NO
SIGNIFICANT WEATHER AND/OR OBSTRUCTIONS TO VISIBILITY. N/A MEANS
CURRENT SKY AND/OR WEATHER CONDITIONS ARE NOT AVAILABLE.

MNZ060>063-068>070-212100-
   Twin Cities Metro

CITY           SKY/WX    TMP DP  RH WIND       PRES   REMARKS
TWIN CITIES    SUNNY     28  11  48 NW18      30.15R WCI  15
ST PAUL        SUNNY     28  10  46 NW21G26   30.16R WCI  15
CRYSTAL        SUNNY     28   7  41 NW15G28   30.14R WCI  16
BLAINE         SUNNY     30  10  43 NW20      30.13R WCI  18
LAKEVILLE      SUNNY     27  12  54 NW16G23   30.14R WCI  14
EDEN PRAIRIE   SUNNY     29  11  47 N14G22    30.14R WCI  18
SOUTH ST PAUL  SUNNY     29  10  44 NW17G26   30.14R WCI  17
LAKE ELMO      FAIR      30  12  47 NW13G22   30.13R WCI  20
$$
MNZ001>005-007-008-013>017-022>024-027-028-212100-
   Northwest Minnesota

CITY           SKY/WX    TMP DP  RH WIND       PRES   REMARKS
BEMIDJI        FLURRIES  17   8  67 NW21G28   30.19R WCI   0
HALLOCK        SUNNY     21  10  63 NW16      30.27S WCI   7
ROSEAU         CLOUDY    19  12  73 W13G18    30.21S WCI   7
WARROAD        FLURRIES  19  12  73 W13       30.18F WCI   7
CROOKSTON      PTSUNNY   19  10  68 NW21G29   30.30S WCI   3
FOSSTON        LGT SNOW  16   9  73 NW16G25   30.25R WCI   0
DETROIT LAKES  FLURRIES  19  12  73 N20G28    30.25R WCI   4
MOORHEAD       MOSUNNY   21  10  63 NW22      30.31S WCI   5
PARK RAPIDS    CLOUDY    20   8  60 NW20G28   30.18R WCI   4
MAHNOMEN       FLURRIES  18  11  73 NW23      30.25R WCI   0
$$
MNZ006-009>011-018-025>026-212100-
   North Central Minnesota

CITY           SKY/WX    TMP DP  RH WIND       PRES   REMARKS
BAUDETTE       LGT SNOW  17  10  74 NW15      30.15R WCI   2
FLAG ISLAND    CLOUDY    19  10  68 NW21G32   30.14S WCI   3
INTL FALLS       N/A     17   7  64 NW18G24   30.12R WCI   1
WASKISH        CLOUDY    18   9  68 NW12G21   30.19R WCI   5
BIG FORK       FLURRIES  18   7  62 W8G17     30.13R WCI   7
LONGVILLE      CLOUDY    21  10  63 NW9G21    30.16R WCI  11
GRAND RAPIDS   CLOUDY    18  10  71 NW21      30.14R WCI   1
CRANE LAKE     LGT SNOW  16   9  73 W7        30.10R WCI   6
ORR            CLOUDY    16   5  62 NW16      30.07R WCI   0
COOK           CLOUDY    16   9  73 NW10G18   30.09R WCI   3
WALKER         CLOUDY    17   7  64 NW18G26   30.18R WCI   0
$$
MNZ012-019>021-037-212100-
   Northeast Minnesota

CITY           SKY/WX    TMP DP  RH WIND       PRES   REMARKS
DULUTH         MOSUNNY   21   9  59 NW17G28   30.04R WCI   7
ELY            CLOUDY    16   7  67 W14G25    30.03R WCI   1
HIBBING        LGT SNOW  17   8  67 NW20      30.08R WCI   1
EVELETH        PTSUNNY   17   7  62 NW17G25   30.08R WCI   2
DULUTH HARBOR  SUNNY     27  10  50 NW21G30   30.09R WCI  13
TWO HARBORS    MOSUNNY   27  10  50 NW12G20   30.03R WCI  16
SILVER BAY     PTSUNNY   21   9  58 NW6G17    30.01R WCI  14
GRAND MARAIS     N/A     23  10  57 NW8G21    30.01R WCI  14
G MARAIS ARPRT LGT SNOW  16   5  62 NW12G21   29.91R WCI   3
$$
MNZ029>031-032-039>041-046>048-054>057-064-212100-
   West Central Minnesota

CITY           SKY/WX    TMP DP  RH WIND       PRES   REMARKS
FERGUS FALLS   MOSUNNY   21  10  63 NW18G25   30.31R WCI   6
WHEATON        SUNNY     25   7  46 NW18      30.33R WCI  11
MORRIS         SUNNY     25   9  50 NW24      30.27R WCI   9
ALEXANDRIA     SUNNY     22   9  57 NW18G25   30.22R WCI   7
ELBOW LAKE     FAIR      21  10  63 NW20G26   30.28R HAZE    WCI   5
WADENA         MOSUNNY   18   9  68 NW22G29   30.21S WCI   0
GLENWOOD       SUNNY     21  10  63 NW22G29   30.22S WCI   5
APPLETON       SUNNY     27   7  43 NW20G26   30.29R WCI  13
BENSON         SUNNY     25   9  50 N20G29    30.28R WCI  11
ORTONVILLE     SUNNY     25   9  50 MISG      30.30R
MADISON        SUNNY     28  10  47 NW20G26   30.29R WCI  15
WILLMAR        FAIR      27  10  50 NW22G28   30.25R WCI  12
$$
MNZ033>034-036-042>043-049>051-058-059-212100-
   Central Minnesota

CITY           SKY/WX    TMP DP  RH WIND       PRES   REMARKS
ST CLOUD       SUNNY     26   9  48 NW20G25   30.18R WCI  12
SAUK CENTRE    FAIR      23  10  56 NW18      30.22R WCI   8
PAYNESVILLE    SUNNY     25  12  58 NW15G25   30.22R WCI  13
AITKIN         SUNNY     23   9  54 W9G17     30.12R WCI  13
PINE RIVER     SUNNY     21   9  58 NW13      30.19R WCI   9
BRAINERD       SUNNY     26   7  44 NW17G23   30.16R WCI  13
STAPLES        SUNNY     21   9  58 NW18G24   30.19R WCI   6
LONG PRAIRIE   FAIR      23  10  58 W15G24    30.20R WCI  10
LITTLE FALLS   SUNNY     27   0  31 W20G25    30.19R WCI  13
LITCHFIELD     SUNNY     27  10  50 NW20G28   30.22R WCI  13
BUFFALO        SUNNY     27   9  45 W16G23    30.19R WCI  15
MAPLE LAKE     SUNNY     28  12  50 NW16G23   30.19R WCI  17
HUTCHINSON     SUNNY     28  13  53 NW21G30   30.21R WCI  14
$$
MNZ037-044-045-052-053-212100-
   East Central Minnesota

CITY           SKY/WX    TMP DP  RH WIND       PRES   REMARKS
PRINCETON      SUNNY     28  10  47 W13G20    30.16R WCI  18
MORA           SUNNY     27  10  50 NW15G24   30.14R WCI  15
CAMBRIDGE      SUNNY     30  14  51 NW15G22   30.13R WCI  19
RUSH CITY      SUNNY     28  10  47 NW10G18   30.12R WCI  19
MOOSE LAKE     SUNNY     28   9  43 NW14G20   30.08R WCI  17
HINCKLEY       FAIR      30  10  43 NW12G21   30.11R WCI  21
CLOQUET        SUNNY     25   7  46 NW16G24   30.06R WCI  12
MCGREGOR       SUNNY     27  10  50 NW13G21   30.12R WCI  16
$$
MNZ071>073-080-081-089-090-097-098-212100-
   Southwest Minnesota

CITY           SKY/WX    TMP DP  RH WIND       PRES   REMARKS
MONTEVIDEO     SUNNY     28   9  43 N18G28    30.28R WCI  16
GRANITE FALLS  SUNNY     28  11  48 NW18G24   30.28S WCI  16
CANBY          SUNNY     28   8  42 NW18G25   30.30R WCI  15
MARSHALL       SUNNY     26  10  50 NW22      30.26R WCI  12
REDWOOD FALLS  SUNNY     27   8  44 NW20G32   30.26R WCI  13
OLIVIA         SUNNY     28  12  50 NW18G31   30.24R WCI  16
PIPESTONE      SUNNY     25   7  46 N21G30    30.25R WCI  10
WINDOM         SUNNY     27   9  46 NW30G36   30.21R WCI  10
WORTHINGTON    SUNNY     27   9  46 N25G31    30.23R WCI  12
JACKSON        SUNNY     28  10  47 NW29G37   30.21R WCI  13
SLAYTON        SUNNY     26   8  46 NW23G32   30.24R WCI  11
$$
MNZ065>067-074>077-082>085-091>093-212100-
   South Central Minnesota

CITY           SKY/WX    TMP DP  RH WIND       PRES   REMARKS
MANKATO        SUNNY     27  12  53 NW21G29   30.18R WCI  13
NEW ULM        SUNNY     27   9  46 NW26G38   30.21R WCI  11
ST JAMES       SUNNY     28  10  47 NW25G33   30.22R WCI  14
FAIRMONT       SUNNY     27  12  53 NW25G33   30.19R WCI  12
GLENCOE        SUNNY     28  12  51 NW21G26   30.19R WCI  14
FARIBAULT      SUNNY     27  12  54 NW17G25   30.15R WCI  14
OWATONNA       SUNNY     28  16  59 NW18G25   30.14R WCI  16
WASECA         SUNNY     30  14  51 NW20G28   30.17R WCI  18
ALBERT LEA     SUNNY     27  12  54 NW18G25   30.13R WCI  13
$$
MNZ078>079-086>088-094>096-212100-
   Southeast Minnesota

CITY           SKY/WX    TMP DP  RH WIND       PRES   REMARKS
ROCHESTER      SUNNY     28  14  55 N25G31    30.08R WCI  13
RED WING       MOSUNNY   28   9  43 NW14G20   30.12R WCI  17
STANTON        SUNNY     29  12  49 NW20      30.13R WCI  17
DODGE CENTER   SUNNY     27  12  54 NW16G26   30.09R WCI  14
WINONA           N/A     32  16  51 NW15      30.09R WCI  22
PRESTON        SUNNY     28  13  53 NW17G24   30.07R WCI  15
$$
ABBREVIATIONS USED IN REMARKS
   TC - TEMPERATURES IN CELSIUS
  WCI - WIND CHILL INDEX
   HX - HEAT INDEX
  VSB - VISIBILITY
$$




USA.gov is the U.S. government's official web portal to all federal, state and local government web resources and services.